Time,TemperatureF,DewpointF,PressureIn,WindDirection,WindDirectionDegrees,WindSpeedMPH,WindSpeedGustMPH,Humidity,HourlyPrecipIn,Conditions,Clouds,dailyrainin,SoftwareType,DateUTC
2013-02-23 00:01:00,19.0,12.0,30.08,North,0,0.0,1.0,75,0.00,,,0.00,,2013-02-23 07:01:00,
2013-02-23 00:11:00,19.0,12.0,30.08,North,0,0.0,1.0,75,0.00,,,0.00,,2013-02-23 07:11:00,
2013-02-23 00:21:00,20.0,12.0,30.08,North,0,0.0,3.0,72,0.00,,,0.00,,2013-02-23 07:21:00,
2013-02-23 00:31:00,21.0,12.0,30.07,North,0,0.0,2.0,68,0.00,,,0.00,,2013-02-23 07:31:00,
2013-02-23 00:41:00,21.0,12.0,30.07,North,0,0.0,2.0,68,0.00,,,0.00,,2013-02-23 07:41:00,
2013-02-23 00:51:00,20.0,12.0,30.07,North,0,0.0,0.0,71,0.00,,,0.00,,2013-02-23 07:51:00,
2013-02-23 01:01:00,19.0,12.0,30.07,North,0,0.0,1.0,74,0.00,,,0.00,,2013-02-23 08:01:00,
2013-02-23 01:11:00,19.0,12.0,30.07,North,0,0.0,1.0,74,0.00,,,0.00,,2013-02-23 08:11:00,
2013-02-23 01:21:00,18.0,11.0,30.06,North,0,0.0,0.0,75,0.00,,,0.00,,2013-02-23 08:21:00,
2013-02-23 01:31:00,18.0,12.0,30.06,North,0,0.0,1.0,76,0.00,,,0.00,,2013-02-23 08:31:00,
2013-02-23 01:41:00,18.0,12.0,30.06,North,0,0.0,1.0,76,0.00,,,0.00,,2013-02-23 08:41:00,
2013-02-23 01:52:00,19.0,12.0,30.05,North,0,0.0,0.0,73,0.00,,,0.00,,2013-02-23 08:52:00,
2013-02-23 02:01:00,19.0,11.0,30.05,North,0,0.0,2.0,71,0.00,,,0.00,,2013-02-23 09:01:00,
2013-02-23 02:11:00,19.0,11.0,30.05,North,0,0.0,2.0,71,0.00,,,0.00,,2013-02-23 09:11:00,
2013-02-23 02:21:00,19.0,11.0,30.05,North,0,0.0,2.0,71,0.00,,,0.00,,2013-02-23 09:21:00,
2013-02-23 02:31:00,20.0,11.0,30.05,North,0,0.0,1.0,69,0.00,,,0.00,,2013-02-23 09:31:00,
2013-02-23 02:41:00,20.0,11.0,30.05,North,0,0.0,1.0,69,0.00,,,0.00,,2013-02-23 09:41:00,
2013-02-23 02:52:00,20.0,11.0,30.05,North,0,0.0,1.0,69,0.00,,,0.00,,2013-02-23 09:52:00,
2013-02-23 03:01:00,20.0,11.0,30.04,North,0,0.0,3.0,67,0.00,,,0.00,,2013-02-23 10:01:00,
2013-02-23 03:11:00,20.0,11.0,30.04,North,0,0.0,3.0,67,0.00,,,0.00,,2013-02-23 10:11:00,
2013-02-23 03:21:00,20.0,11.0,30.04,North,0,0.0,3.0,67,0.00,,,0.00,,2013-02-23 10:21:00,
2013-02-23 03:31:00,20.0,11.0,30.03,North,0,0.0,4.0,66,0.00,,,0.00,,2013-02-23 10:31:00,
2013-02-23 03:41:00,20.0,11.0,30.03,North,0,0.0,4.0,66,0.00,,,0.00,,2013-02-23 10:41:00,
2013-02-23 03:52:00,20.0,11.0,30.03,WSW,247,3.0,6.0,66,0.00,,,0.00,,2013-02-23 10:52:00,
2013-02-23 04:02:00,19.0,10.0,30.03,North,0,0.0,3.0,68,0.00,,,0.00,,2013-02-23 11:02:00,
2013-02-23 04:11:00,19.0,10.0,30.03,North,0,0.0,3.0,68,0.00,,,0.00,,2013-02-23 11:11:00,
2013-02-23 04:21:00,19.0,10.0,30.03,North,0,0.0,3.0,68,0.00,,,0.00,,2013-02-23 11:21:00,
2013-02-23 04:32:00,18.0,10.0,30.02,North,0,0.0,2.0,70,0.00,,,0.00,,2013-02-23 11:32:00,
2013-02-23 04:41:00,18.0,10.0,30.02,North,0,0.0,2.0,70,0.00,,,0.00,,2013-02-23 11:41:00,
2013-02-23 04:52:00,18.0,10.0,30.01,North,0,0.0,1.0,70,0.00,,,0.00,,2013-02-23 11:52:00,
2013-02-23 05:01:00,18.0,10.0,30.02,SSW,204,1.0,6.0,71,0.00,,,0.00,,2013-02-23 12:01:00,
2013-02-23 05:11:00,18.0,10.0,30.02,SSW,204,1.0,6.0,71,0.00,,,0.00,,2013-02-23 12:11:00,
2013-02-23 05:21:00,18.0,10.0,30.02,SSW,204,1.0,6.0,71,0.00,,,0.00,,2013-02-23 12:21:00,
2013-02-23 05:32:00,19.0,11.0,30.00,South,180,2.0,6.0,70,0.00,,,0.00,,2013-02-23 12:32:00,
2013-02-23 05:41:00,19.0,11.0,30.00,South,180,2.0,6.0,70,0.00,,,0.00,,2013-02-23 12:41:00,
2013-02-23 05:52:00,20.0,11.0,29.99,North,0,0.0,7.0,66,0.00,,,0.00,,2013-02-23 12:52:00,
2013-02-23 06:01:00,20.0,11.0,29.98,SSE,167,2.0,7.0,66,0.00,,,0.00,,2013-02-23 13:01:00,
2013-02-23 06:11:00,19.0,10.0,29.98,SSE,160,2.0,7.0,67,0.00,,,0.00,,2013-02-23 13:11:00,
2013-02-23 06:22:00,19.0,10.0,29.98,SSE,160,2.0,7.0,67,0.00,,,0.00,,2013-02-23 13:22:00,
2013-02-23 06:31:00,19.0,10.0,29.96,WSW,247,2.0,5.0,68,0.00,,,0.00,,2013-02-23 13:31:00,
2013-02-23 06:41:00,18.0,10.0,29.96,SSE,165,1.0,4.0,69,0.00,,,0.00,,2013-02-23 13:41:00,
2013-02-23 06:51:00,18.0,10.0,29.96,SSE,165,1.0,4.0,69,0.00,,,0.00,,2013-02-23 13:51:00,
2013-02-23 07:02:00,19.0,11.0,29.95,SW,219,3.0,6.0,69,0.00,,,0.00,,2013-02-23 14:02:00,
2013-02-23 07:11:00,19.0,11.0,29.95,SW,219,3.0,6.0,69,0.00,,,0.00,,2013-02-23 14:11:00,
2013-02-23 07:21:00,19.0,11.0,29.95,SW,219,3.0,6.0,69,0.00,,,0.00,,2013-02-23 14:21:00,
2013-02-23 07:32:00,19.0,11.0,29.95,SW,219,3.0,6.0,69,0.00,,,0.00,,2013-02-23 14:32:00,
2013-02-23 07:41:00,19.0,11.0,29.95,SW,219,3.0,6.0,69,0.00,,,0.00,,2013-02-23 14:41:00,
2013-02-23 07:52:00,18.0,11.0,29.97,North,0,0.0,6.0,74,0.00,,,0.00,,2013-02-23 14:52:00,
2013-02-23 08:01:00,19.0,12.0,29.98,North,0,0.0,2.0,73,0.00,,,0.00,,2013-02-23 15:01:00,
2013-02-23 08:11:00,19.0,12.0,29.98,North,0,0.0,2.0,73,0.00,,,0.00,,2013-02-23 15:11:00,
2013-02-23 08:21:00,23.0,14.0,29.98,SSW,204,1.0,3.0,68,0.00,,,0.00,,2013-02-23 15:21:00,
2013-02-23 08:31:00,24.0,14.0,29.99,WSW,244,2.0,7.0,64,0.00,,,0.00,,2013-02-23 15:31:00,
2013-02-23 08:41:00,24.0,14.0,29.99,WSW,244,2.0,7.0,64,0.00,,,0.00,,2013-02-23 15:41:00,
2013-02-23 08:52:00,26.0,15.0,29.98,SSE,148,1.0,6.0,62,0.00,,,0.00,,2013-02-23 15:52:00,
2013-02-23 09:01:00,30.0,16.0,29.97,NNE,23,1.0,8.0,56,0.00,,,0.00,,2013-02-23 16:01:00,
2013-02-23 09:31:00,34.0,16.0,29.96,SW,232,8.0,17.0,48,0.00,,,0.00,,2013-02-23 16:31:00,
2013-02-23 09:42:00,34.0,16.0,29.96,SW,232,8.0,17.0,48,0.00,,,0.00,,2013-02-23 16:42:00,
2013-02-23 09:51:00,35.0,15.0,29.96,SW,231,9.0,18.0,44,0.00,,,0.00,,2013-02-23 16:51:00,
2013-02-23 10:01:00,35.0,15.0,29.96,SSW,206,6.0,19.0,44,0.00,,,0.00,,2013-02-23 17:01:00,
2013-02-23 10:11:00,36.0,15.0,29.95,SSW,210,9.0,20.0,42,0.00,,,0.00,,2013-02-23 17:11:00,
2013-02-23 10:21:00,36.0,15.0,29.95,SSW,210,9.0,20.0,42,0.00,,,0.00,,2013-02-23 17:21:00,
2013-02-23 10:31:00,36.0,15.0,29.95,SSW,210,9.0,20.0,42,0.00,,,0.00,,2013-02-23 17:31:00,
2013-02-23 10:41:00,36.0,15.0,29.95,SSW,210,9.0,20.0,42,0.00,,,0.00,,2013-02-23 17:41:00,
2013-02-23 10:52:00,38.0,17.0,29.93,SW,231,13.0,20.0,42,0.01,,,0.01,,2013-02-23 17:52:00,
2013-02-23 11:01:00,39.0,16.0,29.93,SW,235,13.0,22.0,39,0.01,,,0.01,,2013-02-23 18:01:00,
2013-02-23 11:12:00,39.0,16.0,29.93,SW,235,13.0,22.0,39,0.01,,,0.01,,2013-02-23 18:12:00,
2013-02-23 11:21:00,39.0,16.0,29.93,WSW,248,14.0,24.0,39,0.01,,,0.01,,2013-02-23 18:21:00,
2013-02-23 11:31:00,39.0,16.0,29.91,WSW,239,11.0,25.0,38,0.00,,,0.01,,2013-02-23 18:31:00,
2013-02-23 11:41:00,39.0,16.0,29.91,WSW,239,11.0,25.0,38,0.00,,,0.01,,2013-02-23 18:41:00,
2013-02-23 11:52:00,40.0,16.0,29.89,SW,236,12.0,30.0,37,0.00,,,0.01,,2013-02-23 18:52:00,
2013-02-23 12:01:00,41.0,17.0,29.88,SW,231,16.0,27.0,37,0.00,,,0.01,,2013-02-23 19:01:00,
2013-02-23 12:11:00,41.0,17.0,29.88,SW,231,16.0,27.0,37,0.00,,,0.01,,2013-02-23 19:11:00,
2013-02-23 12:21:00,41.0,17.0,29.88,SW,231,16.0,27.0,37,0.00,,,0.01,,2013-02-23 19:21:00,
2013-02-23 12:32:00,41.0,17.0,29.88,SW,231,16.0,27.0,37,0.00,,,0.01,,2013-02-23 19:32:00,
2013-02-23 12:41:00,41.0,17.0,29.88,SW,231,16.0,27.0,37,0.00,,,0.01,,2013-02-23 19:41:00,
2013-02-23 13:01:00,42.0,21.0,29.89,WSW,238,14.0,25.0,42,0.00,,,0.01,,2013-02-23 20:01:00,
2013-02-23 13:11:00,42.0,21.0,29.89,WSW,238,14.0,25.0,42,0.00,,,0.01,,2013-02-23 20:11:00,
2013-02-23 13:21:00,42.0,21.0,29.89,WSW,238,14.0,25.0,42,0.00,,,0.01,,2013-02-23 20:21:00,
2013-02-23 13:31:00,42.0,19.0,29.87,WSW,248,12.0,31.0,39,0.00,,,0.01,,2013-02-23 20:31:00,
2013-02-23 13:41:00,42.0,19.0,29.87,WSW,248,12.0,31.0,39,0.00,,,0.01,,2013-02-23 20:41:00,
2013-02-23 13:52:00,41.0,17.0,29.85,WSW,241,15.0,30.0,37,0.00,,,0.01,,2013-02-23 20:52:00,
2013-02-23 14:01:00,41.0,17.0,29.85,WSW,241,15.0,30.0,37,0.00,,,0.01,,2013-02-23 21:01:00,
2013-02-23 14:11:00,42.0,18.0,29.84,West,260,15.0,27.0,37,0.00,,,0.01,,2013-02-23 21:11:00,
2013-02-23 14:21:00,42.0,18.0,29.84,West,260,15.0,27.0,37,0.00,,,0.01,,2013-02-23 21:21:00,
2013-02-23 14:31:00,41.0,21.0,29.83,WSW,238,9.0,23.0,45,0.00,,,0.01,,2013-02-23 21:31:00,
2013-02-23 14:41:00,41.0,21.0,29.83,WSW,238,9.0,23.0,45,0.00,,,0.01,,2013-02-23 21:41:00,
2013-02-23 14:51:00,42.0,21.0,29.82,SW,236,12.0,23.0,43,0.00,,,0.01,,2013-02-23 21:51:00,
2013-02-23 15:01:00,42.0,21.0,29.82,SW,236,12.0,23.0,43,0.00,,,0.01,,2013-02-23 22:01:00,
2013-02-23 15:11:00,42.0,22.0,29.80,SW,233,11.0,24.0,45,0.00,,,0.01,,2013-02-23 22:11:00,
2013-02-23 15:21:00,42.0,22.0,29.80,SW,233,11.0,24.0,45,0.00,,,0.01,,2013-02-23 22:21:00,
2013-02-23 15:31:00,42.0,22.0,29.82,SW,222,10.0,21.0,45,0.00,,,0.01,,2013-02-23 22:31:00,
2013-02-23 15:42:00,42.0,22.0,29.82,SW,222,10.0,21.0,45,0.00,,,0.01,,2013-02-23 22:42:00,
2013-02-23 15:52:00,41.0,22.0,29.81,WSW,240,10.0,21.0,47,0.00,,,0.01,,2013-02-23 22:52:00,
2013-02-23 16:01:00,41.0,23.0,29.82,SW,219,8.0,19.0,49,0.00,,,0.01,,2013-02-23 23:01:00,
2013-02-23 16:11:00,41.0,23.0,29.81,SW,214,8.0,22.0,49,0.00,,,0.01,,2013-02-23 23:11:00,
2013-02-23 16:21:00,41.0,23.0,29.81,SW,214,8.0,22.0,49,0.00,,,0.01,,2013-02-23 23:21:00,
2013-02-23 16:31:00,41.0,23.0,29.80,SW,234,8.0,17.0,48,0.00,,,0.01,,2013-02-23 23:31:00,
2013-02-23 16:41:00,41.0,23.0,29.80,SW,234,8.0,17.0,48,0.00,,,0.01,,2013-02-23 23:41:00,
2013-02-23 16:52:00,41.0,23.0,29.79,SSW,202,7.0,18.0,48,0.00,,,0.01,,2013-02-23 23:52:00,
2013-02-23 17:01:00,41.0,23.0,29.79,SSW,202,7.0,18.0,48,0.00,,,0.01,,2013-02-24 00:01:00,
2013-02-23 17:11:00,41.0,23.0,29.79,SSW,202,7.0,18.0,48,0.00,,,0.01,,2013-02-24 00:11:00,
2013-02-23 17:21:00,41.0,23.0,29.79,SW,216,6.0,13.0,48,0.00,,,0.01,,2013-02-24 00:21:00,
2013-02-23 17:31:00,41.0,23.0,29.78,SW,214,9.0,16.0,49,0.00,,,0.01,,2013-02-24 00:31:00,
2013-02-23 17:42:00,41.0,23.0,29.78,SW,214,9.0,16.0,49,0.00,,,0.01,,2013-02-24 00:42:00,
2013-02-23 17:51:00,40.0,22.0,29.78,SW,232,6.0,19.0,49,0.00,,,0.01,,2013-02-24 00:51:00,
2013-02-23 18:01:00,40.0,22.0,29.78,SSW,205,7.0,18.0,48,0.00,,,0.01,,2013-02-24 01:01:00,
2013-02-23 18:11:00,40.0,22.0,29.78,SSW,205,7.0,18.0,48,0.00,,,0.01,,2013-02-24 01:11:00,
2013-02-23 18:21:00,39.0,22.0,29.81,WSW,243,7.0,16.0,50,0.00,,,0.01,,2013-02-24 01:21:00,
2013-02-23 18:31:00,38.0,22.0,29.82,SW,222,4.0,12.0,51,0.00,,,0.01,,2013-02-24 01:31:00,
2013-02-23 18:41:00,38.0,22.0,29.82,SW,222,4.0,12.0,51,0.00,,,0.01,,2013-02-24 01:41:00,
2013-02-23 18:51:00,38.0,21.0,29.82,SW,226,5.0,10.0,50,0.00,,,0.01,,2013-02-24 01:51:00,
2013-02-23 19:01:00,38.0,21.0,29.82,SW,226,5.0,10.0,50,0.00,,,0.01,,2013-02-24 02:01:00,
2013-02-23 19:11:00,38.0,21.0,29.82,SW,226,5.0,10.0,50,0.00,,,0.01,,2013-02-24 02:11:00,
2013-02-23 19:21:00,37.0,20.0,29.83,SW,236,7.0,19.0,50,0.00,,,0.01,,2013-02-24 02:21:00,
2013-02-23 19:32:00,37.0,20.0,29.84,SW,227,6.0,16.0,50,0.00,,,0.01,,2013-02-24 02:32:00,
2013-02-23 19:42:00,37.0,20.0,29.84,SW,227,6.0,16.0,50,0.00,,,0.01,,2013-02-24 02:42:00,
2013-02-23 19:52:00,36.0,20.0,29.83,WSW,246,6.0,13.0,52,0.00,,,0.01,,2013-02-24 02:52:00,
2013-02-23 20:01:00,36.0,21.0,29.84,West,259,3.0,11.0,53,0.00,,,0.01,,2013-02-24 03:01:00,
2013-02-23 20:11:00,36.0,21.0,29.84,West,259,3.0,11.0,53,0.00,,,0.01,,2013-02-24 03:11:00,
2013-02-23 20:21:00,36.0,21.0,29.84,West,259,3.0,11.0,53,0.00,,,0.01,,2013-02-24 03:21:00,
2013-02-23 20:31:00,35.0,20.0,29.85,NW,309,10.0,15.0,54,0.00,,,0.01,,2013-02-24 03:31:00,
2013-02-23 20:42:00,35.0,20.0,29.85,NW,309,10.0,15.0,54,0.00,,,0.01,,2013-02-24 03:42:00,
2013-02-23 20:52:00,34.0,20.0,29.86,NW,306,6.0,18.0,57,0.00,,,0.01,,2013-02-24 03:52:00,
2013-02-23 21:01:00,33.0,20.0,29.87,West,267,4.0,10.0,58,0.00,,,0.01,,2013-02-24 04:01:00,
2013-02-23 21:11:00,33.0,20.0,29.87,West,267,4.0,10.0,58,0.00,,,0.01,,2013-02-24 04:11:00,
2013-02-23 21:21:00,33.0,19.0,29.87,North,0,0.0,6.0,55,0.00,,,0.01,,2013-02-24 04:21:00,
2013-02-23 21:31:00,31.0,21.0,29.87,SW,220,4.0,9.0,65,0.00,,,0.01,,2013-02-24 04:31:00,
2013-02-23 21:41:00,31.0,21.0,29.87,SW,220,4.0,9.0,65,0.00,,,0.01,,2013-02-24 04:41:00,
2013-02-23 21:52:00,30.0,21.0,29.87,SSW,205,3.0,7.0,68,0.00,,,0.01,,2013-02-24 04:52:00,
2013-02-23 22:01:00,29.0,19.0,29.88,SW,231,6.0,12.0,67,0.00,,,0.01,,2013-02-24 05:01:00,
2013-02-23 22:11:00,29.0,19.0,29.88,SW,231,6.0,12.0,67,0.00,,,0.01,,2013-02-24 05:11:00,
2013-02-23 22:21:00,29.0,20.0,29.88,SE,135,2.0,12.0,69,0.00,,,0.01,,2013-02-24 05:21:00,
2013-02-23 22:32:00,29.0,20.0,29.88,North,0,0.0,11.0,70,0.00,,,0.01,,2013-02-24 05:32:00,
2013-02-23 22:41:00,29.0,20.0,29.88,North,0,0.0,11.0,70,0.00,,,0.01,,2013-02-24 05:41:00,
2013-02-23 22:52:00,29.0,20.0,29.88,East,99,4.0,10.0,69,0.00,,,0.01,,2013-02-24 05:52:00,
2013-02-23 23:01:00,28.0,20.0,29.89,North,0,0.0,6.0,72,0.00,,,0.01,,2013-02-24 06:01:00,
2013-02-23 23:11:00,28.0,20.0,29.89,North,0,0.0,6.0,72,0.00,,,0.01,,2013-02-24 06:11:00,
2013-02-23 23:21:00,27.0,22.0,29.89,SSE,155,4.0,8.0,82,0.00,,,0.01,,2013-02-24 06:21:00,
2013-02-23 23:31:00,26.0,21.0,29.88,SSE,163,5.0,9.0,81,0.00,,,0.01,,2013-02-24 06:31:00,
2013-02-23 23:41:00,26.0,21.0,29.88,SSE,163,5.0,9.0,81,0.00,,,0.01,,2013-02-24 06:41:00,
2013-02-23 23:52:00,26.0,21.0,29.88,SSW,210,1.0,5.0,80,0.00,,,0.01,,2013-02-24 06:52:00,